When you browse on this site, cookies collect data to enhance your experience and personalize the content and advertising you see.
Visit our Privacy Policy to learn more. By continuing to use the site, you agree to this use of cookies and data.
  • In Deutschland
  • Länderverzeichnis
  • Für 7 Tage
  • Wassertemperatur
  • Wetterkarte
  • Widgets
  • user-avatar
    Anmelden

    Stündliche Wetter Pyshminskaya

    Heute, 22 Februar, Samstag

    Zeit Temperatur Niederschläge Wind Luftdruck Luftfeuchtigkeit
    00:00 -4°C° 0 mm 1 m/S 740 mmHg 95%
    01:00 -4°C° 0 mm 1 m/S 740 mmHg 95%
    02:00 -4°C° 0 mm 1 m/S 740 mmHg 95%
    03:00 -6°C° 0 mm 1 m/S 741 mmHg 95%
    04:00 -6°C° 0 mm 1 m/S 741 mmHg 96%
    05:00 -6°C° 0 mm 1 m/S 741 mmHg 96%
    06:00 -7°C° 0 mm 1 m/S 741 mmHg 96%
    07:00 -7°C° 0 mm 1 m/S 741 mmHg 96%
    08:00 -6°C° 0 mm 1 m/S 742 mmHg 95%
    09:00 -3°C° 0 mm 1 m/S 742 mmHg 93%
    10:00 -2°C° 0 mm 1 m/S 743 mmHg 92%
    11:00 -3°C° 0 mm 2 m/S 743 mmHg 91%
    12:00 -3°C° 0 mm 2 m/S 743 mmHg 90%
    13:00 -2°C° 0 mm 2 m/S 743 mmHg 88%
    14:00 -2°C° 0 mm 2 m/S 743 mmHg 87%
    15:00 -3°C° 0 mm 2 m/S 744 mmHg 86%
    16:00 -3°C° 0 mm 2 m/S 744 mmHg 84%
    17:00 -3°C° 0 mm 2 m/S 744 mmHg 85%
    18:00 -3°C° 0 mm 2 m/S 744 mmHg 87%
    19:00 -2°C° 0 mm 1 m/S 744 mmHg 88%
    20:00 -2°C° 0 mm 1 m/S 744 mmHg 89%
    21:00 -2°C° 0 mm 1 m/S 744 mmHg 89%
    22:00 -2°C° 0 mm 1 m/S 744 mmHg 90%
    23:00 -5°C° 0 mm 2 m/S 744 mmHg 92%

    Morgen, 23 Februar, Sonntag

    Zeit Temperatur Niederschläge Wind Luftdruck Luftfeuchtigkeit
    00:00 -6°C° 0 mm 2 m/S 744 mmHg 93%
    01:00 -7°C° 0 mm 2 m/S 743 mmHg 95%
    02:00 -8°C° 0 mm 2 m/S 743 mmHg 95%
    03:00 -8°C° 0 mm 2 m/S 743 mmHg 95%
    04:00 -8°C° 0 mm 2 m/S 743 mmHg 95%
    05:00 -8°C° 0 mm 2 m/S 743 mmHg 95%
    06:00 -8°C° 0 mm 2 m/S 743 mmHg 95%
    07:00 -7°C° 0 mm 2 m/S 742 mmHg 94%
    08:00 -6°C° 0 mm 2 m/S 742 mmHg 92%
    09:00 -6°C° 0 mm 3 m/S 742 mmHg 89%
    10:00 -4°C° 0 mm 3 m/S 742 mmHg 86%
    11:00 -4°C° 0 mm 3 m/S 742 mmHg 84%
    12:00 -2°C° 0 mm 3 m/S 741 mmHg 81%
    13:00 -2°C° 0 mm 4 m/S 741 mmHg 79%
    14:00 -3°C° 0 mm 4 m/S 741 mmHg 79%
    15:00 -2°C° 0 mm 3 m/S 740 mmHg 80%
    16:00 -2°C° 0 mm 3 m/S 740 mmHg 80%
    17:00 -4°C° 0 mm 3 m/S 739 mmHg 82%
    18:00 -4°C° 0 mm 3 m/S 739 mmHg 85%
    19:00 -4°C° 0 mm 2 m/S 738 mmHg 87%
    20:00 -5°C° 0 mm 2 m/S 738 mmHg 89%
    21:00 -7°C° 0 mm 3 m/S 737 mmHg 91%
    22:00 -8°C° 0 mm 3 m/S 737 mmHg 92%
    23:00 -8°C° 0 mm 3 m/S 736 mmHg 91%

    übermorgen, 24 Februar, Montag

    Zeit Temperatur Niederschläge Wind Luftdruck Luftfeuchtigkeit
    00:00 -9°C° 0 mm 3 m/S 736 mmHg 90%
    01:00 -9°C° 0 mm 3 m/S 735 mmHg 89%
    02:00 -9°C° 0 mm 3 m/S 735 mmHg 88%
    03:00 -10°C° 0 mm 3 m/S 734 mmHg 87%
    04:00 -10°C° 0 mm 3 m/S 734 mmHg 85%
    05:00 -10°C° 0 mm 3 m/S 733 mmHg 85%
    06:00 -10°C° 0 mm 4 m/S 733 mmHg 85%
    07:00 -10°C° 0 mm 4 m/S 732 mmHg 85%
    08:00 -9°C° 0 mm 4 m/S 732 mmHg 84%
    09:00 -9°C° 0 mm 4 m/S 731 mmHg 83%
    10:00 -8°C° 0 mm 5 m/S 731 mmHg 83%
    11:00 -7°C° 0 mm 5 m/S 730 mmHg 85%
    12:00 -7°C° 0 mm 5 m/S 730 mmHg 87%
    13:00 -6°C° 0 mm 5 m/S 729 mmHg 89%
    14:00 -6°C° 0.3 mm 5 m/S 729 mmHg 90%
    15:00 -6°C° 0.3 mm 5 m/S 729 mmHg 92%
    16:00 -6°C° 0.3 mm 5 m/S 728 mmHg 93%
    17:00 -6°C° 0.1 mm 5 m/S 728 mmHg 92%
    18:00 -7°C° 0.1 mm 5 m/S 727 mmHg 90%
    19:00 -7°C° 0.1 mm 5 m/S 727 mmHg 89%
    20:00 -7°C° 0 mm 5 m/S 727 mmHg 88%
    21:00 -6°C° 0 mm 5 m/S 727 mmHg 87%
    22:00 -5°C° 0 mm 4 m/S 727 mmHg 86%
    23:00 -5°C° 0 mm 4 m/S 727 mmHg 87%

    25 Februar, Dienstag

    Zeit Temperatur Niederschläge Wind Luftdruck Luftfeuchtigkeit
    00:00 -5°C° 0 mm 4 m/S 727 mmHg 88%
    01:00 -5°C° 0 mm 3 m/S 728 mmHg 90%
    02:00 -5°C° 0 mm 3 m/S 728 mmHg 90%
    03:00 -5°C° 0 mm 3 m/S 729 mmHg 91%
    04:00 -6°C° 0 mm 3 m/S 729 mmHg 91%
    05:00 -6°C° 0 mm 3 m/S 729 mmHg 90%
    06:00 -5°C° 0 mm 2 m/S 730 mmHg 90%
    07:00 -4°C° 0 mm 2 m/S 730 mmHg 89%
    08:00 -4°C° 0 mm 2 m/S 730 mmHg 88%
    09:00 -4°C° 0 mm 3 m/S 730 mmHg 87%
    10:00 -4°C° 0 mm 3 m/S 730 mmHg 86%
    11:00 -2°C° 0 mm 3 m/S 730 mmHg 85%
    12:00 -1°C° 0 mm 3 m/S 730 mmHg 84%
    13:00 -1°C° 0 mm 3 m/S 730 mmHg 83%
    14:00 -1°C° 0 mm 3 m/S 730 mmHg 84%
    15:00 -2°C° 0 mm 3 m/S 730 mmHg 86%
    16:00 -2°C° 0 mm 3 m/S 730 mmHg 88%
    17:00 -4°C° 0 mm 3 m/S 729 mmHg 90%
    18:00 -4°C° 0 mm 2 m/S 729 mmHg 92%
    19:00 -5°C° 0 mm 2 m/S 729 mmHg 94%
    20:00 -4°C° 0 mm 2 m/S 729 mmHg 95%
    21:00 -4°C° 0 mm 2 m/S 729 mmHg 95%
    22:00 -4°C° 0 mm 2 m/S 728 mmHg 95%
    23:00 -5°C° 0 mm 3 m/S 728 mmHg 95%

    26 Februar, Mittwoch

    Zeit Temperatur Niederschläge Wind Luftdruck Luftfeuchtigkeit
    00:00 -4°C° 0 mm 3 m/S 728 mmHg 95%
    01:00 -3°C° 0 mm 4 m/S 728 mmHg 95%
    02:00 -3°C° 0 mm 4 m/S 727 mmHg 95%
    03:00 -3°C° 0 mm 4 m/S 727 mmHg 95%
    04:00 -3°C° 0 mm 4 m/S 726 mmHg 96%
    05:00 -3°C° 0 mm 4 m/S 726 mmHg 95%
    06:00 -3°C° 0 mm 4 m/S 725 mmHg 95%
    07:00 -3°C° 0 mm 4 m/S 725 mmHg 95%
    08:00 -2°C° 0.7 mm 3 m/S 724 mmHg 95%
    09:00 -2°C° 0.7 mm 3 m/S 724 mmHg 95%
    10:00 -2°C° 0.7 mm 3 m/S 723 mmHg 96%
    11:00 -2°C° 1.2 mm 3 m/S 723 mmHg 96%
    12:00 -2°C° 1.2 mm 2 m/S 722 mmHg 96%
    13:00 -1°C° 1.2 mm 2 m/S 722 mmHg 97%
    14:00 -2°C° 1.5 mm 2 m/S 722 mmHg 97%
    15:00 0°C° 1.5 mm 1 m/S 722 mmHg 97%
    16:00 0°C° 1.5 mm 1 m/S 721 mmHg 98%
    17:00 0°C° 0.8 mm 1 m/S 721 mmHg 98%
    18:00 0°C° 0.8 mm 1 m/S 722 mmHg 98%
    19:00 -3°C° 0.8 mm 2 m/S 722 mmHg 98%
    20:00 -2°C° 0.2 mm 3 m/S 722 mmHg 95%
    21:00 -3°C° 0.2 mm 4 m/S 723 mmHg 93%
    22:00 -4°C° 0.2 mm 5 m/S 723 mmHg 90%
    23:00 -4°C° 0 mm 5 m/S 724 mmHg 90%

    27 Februar, Donnerstag

    Zeit Temperatur Niederschläge Wind Luftdruck Luftfeuchtigkeit
    00:00 -5°C° 0 mm 5 m/S 724 mmHg 89%
    01:00 -6°C° 0 mm 5 m/S 725 mmHg 88%
    02:00 -7°C° 0 mm 5 m/S 725 mmHg 88%
    03:00 -8°C° 0 mm 5 m/S 726 mmHg 88%
    04:00 -11°C° 0 mm 5 m/S 727 mmHg 89%
    05:00 -10°C° 0 mm 4 m/S 727 mmHg 87%
    06:00 -11°C° 0 mm 4 m/S 728 mmHg 86%
    07:00 -11°C° 0 mm 4 m/S 728 mmHg 84%
    08:00 -10°C° 0 mm 4 m/S 728 mmHg 81%
    09:00 -8°C° 0 mm 4 m/S 728 mmHg 77%
    10:00 -7°C° 0 mm 4 m/S 729 mmHg 74%
    11:00 -6°C° 0 mm 5 m/S 729 mmHg 78%
    12:00 -5°C° 0 mm 5 m/S 729 mmHg 83%
    13:00 -4°C° 0 mm 6 m/S 729 mmHg 87%
    14:00 -4°C° 0 mm 5 m/S 729 mmHg 87%
    15:00 -4°C° 0 mm 5 m/S 730 mmHg 86%
    16:00 -2°C° 0 mm 5 m/S 730 mmHg 86%
    17:00 -2°C° 0 mm 5 m/S 730 mmHg 86%
    18:00 -2°C° 0 mm 5 m/S 731 mmHg 87%
    19:00 -2°C° 0 mm 4 m/S 732 mmHg 88%
    20:00 -2°C° 0 mm 4 m/S 732 mmHg 89%
    21:00 -3°C° 0 mm 4 m/S 733 mmHg 89%
    22:00 -2°C° 0 mm 3 m/S 733 mmHg 90%
    23:00 -2°C° 0 mm 3 m/S 733 mmHg 89%
    Mehr zeigen